This demonstration page uses our WeatherBlox Daily Observations layout. Learn more.

41.55636, -103.73856

Hourly Observations for January 9, 2018

Temp ( °F °C ) Dew Point ( °F °C ) Humidity (%) Winds ( mph kmh ) Pressure ( in mb ) Visibility ( mi km ) Precip ( " mm )
12:53 am 00:53 Clear 47 8.3 28 -2.2 48 48 S 6 9 29.83 1010 10 16.09344 0 0
1:53 am 01:53 Clear 34 1.1 27 -2.8 76 76 N 6 9 29.83 1010 10 16.09344 0 0
2:53 am 02:53 Clear 33 0.6 27 -2.8 78 78 Calm 29.83 1010 8 12.874752 0 0
3:53 am 03:53 Clear 31 -0.6 23 -5 72 72 ESE 3 6 29.85 1011 10 16.09344 0 0
4:53 am 04:53 Clear 37 2.8 23 -5 57 57 ENE 9 15 29.85 1011 10 16.09344 0 0
5:53 am 05:53 Clear 29 -1.7 20 -6.7 69 69 NE 7 11 29.88 1012 10 16.09344 0 0
6:53 am 06:53 Clear 36 2.2 22 -5.6 57 57 E 6 9 29.85 1011 10 16.09344 0 0
7:53 am 07:53 Sunny 31 -0.6 22 -5.6 69 69 ENE 6 9 29.88 1012 10 16.09344 0 0
8:53 am 08:53 Sunny 40 4.4 24 -4.4 53 53 Calm 29.83 1010 10 16.09344 0 0
9:53 am 09:53 Sunny 39 3.9 25 -3.9 57 57 NNW 3 6 29.85 1011 10 16.09344 0 0
10:53 am 10:53 Sunny 51 10.6 29 -1.7 43 43 ESE 3 6 29.77 1008 10 16.09344 0 0
11:53 am 11:53 Sunny 54 12.2 29 -1.7 38 38 E 3 6 29.74 1007 10 16.09344 0 0
12:53 pm 12:53 Sunny 51 10.6 31 -0.6 46 46 E 6 9 29.68 1005 10 16.09344 0 0
1:53 pm 13:53 Sunny 53 11.7 32 0 45 45 ESE 6 9 29.65 1004 10 16.09344 0 0
2:53 pm 14:53 Sunny 49 9.4 33 0.6 55 55 Calm 29.65 1004 10 16.09344 0 0
3:53 pm 15:53 Sunny 49 9.4 32 0 52 52 E 6 9 29.65 1004 10 16.09344 0 0
4:53 pm 16:53 Clear 41 5 32 0 70 70 ENE 6 9 29.65 1004 10 16.09344 0 0
5:53 pm 17:53 Clear 49 9.4 32 0 52 52 SE 6 9 29.65 1004 10 16.09344 0 0
6:53 pm 18:53 Partly Cloudy 42 5.6 32 0 68 68 Calm 29.65 1004 10 16.09344 0 0
7:53 pm 19:53 Partly Cloudy 43 6.1 32 0 65 65 Calm 29.65 1004 10 16.09344 0 0
8:53 pm 20:53 Partly Cloudy 45 7.2 32 0 61 61 E 5 7 29.59 1002 10 16.09344 0 0
9:53 pm 21:53 Mostly Cloudy 41 5 32 0 70 70 N 3 6 29.62 1003 10 16.09344 0 0
10:53 pm 22:53 Mostly Clear 39 3.9 31 -0.6 73 73 Calm 29.59 1002 10 16.09344 0 0
11:53 pm 23:53 Mostly Clear 37 2.8 29 -1.7 73 73 N 6 9 29.56 1001 10 16.09344 0 0

Powered by AerisWeather